SCP
4 4 5 5 5 5 5 4 4 3 4 4 4 4 4 4 4 4 3 3 3 3 3 2 2 2 2 2 2 2 2 2 2 2 1 1 1 1 1 1 1 1 1
4 4 5 5 5 5 6 5 4 4 4 4 4 3 3 3 4 4 3 3 3 3 3 2 2 2 2 2 2 2 2 2 2 2 1 1 1 1 2 1 1 1 1
4 4 5 5 5 6 7 7 5 4 3 3 3 3 3 3 3 3 4 3 3 3 2 2 2 2 2 3 3 2 2 2 2 2 1 1 1 1 2 1 1 1 1
4 4 4 4 4 6 7 7 5 4 2 2 2 2 2 2 2 3 4 4 4 4 3 2 2 2 2 2 2 2 2 2 2 1 1 1 1 2 2 1 1 1 1
4 4 4 4 4 5 6 5 4 3 2 2 2 2 2 2 2 3 4 5 6 6 5 4 3 2 2 2 2 1 1 1 1 1 1 1 1 2 2 2 1 1 1
5 5 4 4 4 5 4 3 3 2 2 2 2 2 2 2 2 3 4 5 6 7 7 6 4 3 2 1 1 1 1 1 1 1 1 1 1 2 2 2 1 1 1
6 6 6 5 5 4 3 3 2 2 2 2 2 2 2 2 2 2 3 4 6 7 8 8 6 3 2 1 1 1 1 1 1 1 1 1 1 1 2 2 1 1 1
7 7 7 6 5 4 4 3 2 2 2 2 2 2 2 2 2 1 2 3 5 6 7 8 7 4 2 1 1 1 1 1 1 1 1 1 1 1 2 2 2 1 1
7 7 7 7 6 5 5 4 3 3 3 3 3 2 2 2 1 1 1 2 4 5 6 7 6 4 2 1 1 1 1 2 2 2 1 1 1 1 1 2 2 1 1
5 6 6 6 5 5 4 4 4 4 4 4 3 3 3 2 2 1 1 2 4 5 7 6 5 3 2 1 1 2 2 2 2 2 1 1 1 1 1 1 1 1 1
4 4 4 4 4 4 5 6 7 7 6 5 5 4 3 3 2 1 1 2 4 6 7 6 4 2 1 1 1 2 2 2 2 2 2 1 1 1 1 1 1 1 2
4 4 5 5 5 5 6 7 8 7 7 6 6 5 4 4 3 2 1 2 3 6 6 4 3 1 1 1 1 1 1 1 2 2 2 2 2 2 2 1 1 2 2
6 7 8 9 8 8 8 7 7 6 5 6 6 5 5 5 4 3 2 1 2 4 4 2 1 1 1 0 0 0 1 1 2 2 2 2 3 3 2 2 1 1 1
10 11 11 10 9 9 8 6 5 5 5 5 5 4 4 4 3 3 2 2 3 3 2 2 1 1 1 1 1 1 1 1 1 2 3 3 3 3 3 2 2 1 1
10 10 10 8 6 6 5 4 4 4 4 4 3 3 3 3 2 1 1 2 3 3 2 2 2 2 1 1 1 1 1 1 1 2 3 3 3 3 3 2 2 1 1
6 6 6 5 4 3 3 2 3 2 2 2 1 2 2 2 1 1 0 1 2 2 2 2 2 2 2 2 2 2 2 2 2 2 2 2 2 2 2 2 1 1 1
3 3 4 4 4 3 2 2 2 2 1 1 1 1 1 1 1 0 0 0 0 0 1 2 2 2 2 2 2 2 2 2 2 2 2 2 2 1 1 1 1 1 1
2 3 3 4 4 3 2 2 2 2 2 2 1 0 0 0 0 0 0 0 0 0 1 1 2 2 2 2 2 1 2 2 2 2 2 1 1 1 1 1 1 1 1
2 2 3 3 3 2 2 2 2 3 3 3 1 0 0 0 0 0 0 1 1 1 1 1 2 2 2 2 2 2 2 2 2 2 1 1 1 1 1 1 1 1 1
2 2 2 2 2 2 2 2 3 3 3 2 1 1 0 0 1 1 1 1 1 1 1 1 1 2 2 2 2 2 2 2 2 2 1 1 1 1 1 1 1 1 1
3 2 2 2 2 2 2 2 3 3 2 2 1 1 0 0 1 1 1 1 1 1 1 1 1 1 1 2 2 2 2 1 1 1 1 1 1 1 1 1 1 1 1
3 3 3 2 2 2 2 2 2 2 2 1 1 1 1 0 0 0 1 1 1 1 1 1 1 1 1 2 2 2 2 1 1 1 1 1 1 1 1 1 1 0 1
3 3 3 3 3 2 2 2 2 2 2 2 2 1 1 1 1 1 1 1 1 2 1 1 1 1 1 2 3 2 2 1 1 1 1 1 1 1 1 0 0 0 0
3 3 3 3 3 2 2 2 3 3 3 2 2 2 1 1 1 1 1 1 1 2 1 1 1 1 2 2 3 2 2 1 1 1 1 1 1 1 1 1 0 0 0
2 3 3 3 3 3 3 3 3 3 3 2 2 1 1 1 1 1 1 1 1 1 1 1 1 1 1 2 2 2 1 1 1 1 1 1 1 1 1 1 0 0 0
2 3 3 3 2 2 2 3 3 3 3 2 2 1 1 1 0 0 1 1 1 2 2 1 1 1 1 2 2 2 1 0 0 0 1 1 1 1 1 1 0 0 0
Wind_Speed
5 5 4 4 4 4 3 3 2 2 1 1 1 1 1 1 1 0 1 1 1 1 1 1 0 1 1 0 0 0 0 0 1 1 2 3 2 2 2 1 2 3 5
5 5 4 4 3 3 2 2 2 2 2 2 1 1 1 0 0 0 0 1 0 1 1 1 0 1 0 0 0 0 1 1 1 1 2 2 2 2 2 1 2 2 4
5 5 4 3 3 3 2 2 2 2 2 2 1 1 1 1 1 0 1 1 1 2 2 1 1 1 1 1 0 1 1 1 1 2 2 2 1 1 1 2 3 2 2
5 5 4 3 2 2 2 2 2 2 2 2 2 1 1 2 2 1 2 2 2 3 3 3 3 2 1 1 1 1 0 1 2 2 2 2 2 1 1 1 2 2 1
5 4 4 3 3 3 3 3 3 2 2 2 2 2 2 2 2 2 2 3 3 3 3 3 4 5 7 5 3 2 1 0 1 1 2 1 1 0 0 1 1 1 2
5 5 4 4 4 3 3 3 3 3 2 2 3 3 3 3 5 5 2 3 2 3 3 3 4 4 5 6 7 7 5 2 1 0 1 1 1 1 1 1 1 1 1
5 5 4 4 4 3 3 3 3 3 3 3 3 3 4 5 6 4 3 2 2 2 2 2 2 3 2 3 4 4 5 5 3 2 1 1 1 1 2 2 0 0 0
6 5 5 4 4 4 4 4 3 3 3 3 3 3 4 5 4 3 2 2 2 2 2 2 2 3 3 2 2 3 3 4 3 2 2 1 2 2 2 1 1 2 2
6 5 5 5 5 4 4 4 3 3 3 3 4 3 3 4 4 2 1 2 3 3 3 3 3 3 5 3 2 3 3 3 4 4 4 3 3 3 3 1 1 2 1
5 4 4 5 5 5 5 4 3 3 3 3 4 3 3 3 3 1 2 2 3 3 3 4 5 4 4 4 1 2 2 2 2 3 3 2 2 2 1 2 2 1 0
4 5 4 4 5 5 5 4 3 3 3 3 4 3 3 3 3 2 2 0 1 2 2 3 4 5 4 3 2 2 1 1 1 1 2 2 1 1 1 1 2 3 2
5 4 5 4 4 5 5 4 3 4 4 4 4 3 3 3 3 2 2 2 2 2 2 3 4 4 4 3 2 3 2 2 0 1 1 1 1 1 1 1 2 2 2
5 5 4 5 4 4 4 4 4 3 2 3 3 3 3 3 4 4 3 2 1 1 3 6 6 4 4 3 3 1 1 0 1 1 1 1 1 1 0 1 1 1 0
6 5 4 4 4 4 2 2 2 2 2 2 2 2 2 3 2 2 3 4 4 4 3 6 5 4 2 2 2 1 0 1 1 1 1 1 1 1 0 1 1 0 0
6 5 5 4 4 4 3 3 2 3 3 1 1 1 1 2 3 3 1 1 1 2 2 3 2 2 2 1 1 1 1 0 0 0 1 1 1 1 1 1 1 1 1
5 5 4 4 4 3 4 4 8 6 6 6 5 3 3 5 5 4 4 3 2 0 2 2 1 1 1 1 1 1 0 1 1 1 1 1 1 1 1 1 1 1 1
4 4 3 3 4 3 3 3 4 4 5 5 5 5 4 4 4 3 3 2 1 2 2 1 1 0 0 0 1 1 1 1 1 1 1 1 1 2 2 2 2 2 2
4 4 3 3 3 3 3 3 2 3 3 3 4 4 4 4 3 2 2 3 2 2 1 0 0 0 0 0 0 0 0 0 0 1 1 2 2 2 2 2 2 3 3
3 3 3 3 3 3 3 3 2 2 2 3 3 4 4 4 4 2 3 2 1 1 1 0 0 0 0 0 1 1 1 1 1 2 1 2 2 2 2 3 2 2 3
3 3 2 3 3 3 3 3 3 3 2 2 2 2 3 4 3 3 3 1 1 1 0 0 0 0 0 0 0 1 1 1 1 1 1 1 2 2 2 3 3 3 3
3 4 5 3 2 2 2 3 3 3 2 2 2 2 1 2 2 2 1 1 1 0 0 0 0 1 0 0 0 1 1 1 1 1 1 2 2 2 3 3 3 3 3
3 3 4 3 2 2 2 3 3 3 3 3 2 4 3 3 1 1 1 1 1 0 0 0 0 0 0 0 0 1 1 1 1 1 2 2 3 3 3 3 3 4 4
3 3 3 3 3 3 3 2 2 2 2 2 2 2 3 3 2 2 2 1 1 1 1 1 1 0 0 1 1 1 1 1 2 2 3 3 3 3 3 4 4 5 5
3 3 3 3 3 3 3 2 2 2 2 3 3 3 3 3 2 2 2 2 2 1 1 1 1 1 1 1 1 0 1 2 3 3 4 5 4 4 4 4 5 5 5
3 3 3 3 3 3 3 3 3 3 3 3 3 3 3 3 3 3 2 2 2 2 2 2 2 2 2 1 1 1 3 2 2 4 4 5 5 4 5 5 5 5 6
3 3 3 2 2 3 3 3 3 3 3 3 3 3 4 4 3 3 3 2 2 2 2 2 2 2 2 2 1 2 1 1 2 4 5 4 4 4 5 5 6 5 6
Wind_Direction
180 181 187 188 191 192 200 209 210 212 196 199 204 224 227 226 240 247 285 264 234 201 205 170 154 336 319 277 215 185 238 215 164 125 114 97 87 65 77 74 94 101 94
167 167 174 181 185 183 180 185 186 185 178 168 177 192 204 169 153 172 262 288 264 140 133 130 144 143 158 312 164 99 99 114 179 142 111 105 93 93 96 107 92 95 96
155 157 160 165 165 165 163 159 164 159 150 148 157 166 159 121 119 111 109 83 71 69 67 73 68 63 67 80 101 98 114 133 139 151 136 117 87 83 118 97 90 73 93
141 144 144 148 149 149 142 138 139 142 137 134 138 132 112 103 92 97 112 108 98 80 71 67 59 54 45 69 110 104 124 162 154 164 129 125 108 92 172 136 117 98 68
130 134 134 137 138 135 127 126 126 129 132 127 127 117 106 106 70 79 114 112 110 105 94 83 69 56 42 31 27 41 54 222 156 149 130 130 116 154 245 211 127 129 105
118 118 125 133 131 128 127 123 122 116 101 96 95 100 91 67 51 40 37 103 103 101 94 89 94 82 78 71 58 49 33 13 16 332 120 132 155 199 268 245 189 193 130
114 112 117 128 130 130 126 119 118 114 108 106 99 98 90 68 55 48 25 95 101 88 86 81 76 80 95 102 105 106 69 44 16 333 28 342 314 309 261 239 216 273 69
115 115 118 122 125 128 125 121 119 112 106 103 102 102 101 83 64 49 354 125 100 89 77 80 81 74 45 39 109 93 78 55 26 25 47 18 24 349 290 250 204 182 165
114 115 118 120 121 121 118 119 123 123 121 118 112 108 103 94 73 53 299 134 112 95 79 67 61 77 33 1 96 99 88 88 84 69 58 57 50 22 340 272 201 200 153
109 110 113 121 124 119 118 120 122 133 131 128 114 113 107 99 89 54 285 156 129 125 108 94 65 52 41 9 81 106 103 84 87 104 101 99 87 78 12 336 316 287 198
121 121 120 122 125 118 115 123 135 134 123 116 111 105 95 79 94 54 345 307 126 128 117 111 92 81 72 40 20 64 40 315 115 101 108 99 91 75 48 25 343 324 319
123 124 124 120 117 117 118 119 124 133 139 135 125 116 105 94 75 87 61 16 1 98 99 96 98 108 106 85 62 44 350 294 133 109 92 71 54 52 47 30 10 2 356
119 115 115 113 108 110 119 128 135 143 148 140 137 131 119 109 110 115 120 100 46 92 90 86 99 120 136 121 103 59 270 270 51 75 69 50 40 38 48 143 137 151 117
126 123 123 120 114 107 109 119 123 129 132 142 147 142 125 117 108 127 147 153 151 150 141 128 137 146 155 90 125 171 192 20 358 40 41 49 46 60 24 8 347 339 69
129 131 133 126 118 112 95 56 60 55 31 17 92 107 112 115 68 39 24 93 126 131 153 151 154 151 148 129 110 82 61 121 139 13 18 17 10 8 5 357 319 294 292
137 137 134 133 133 132 125 107 58 59 65 54 42 36 74 80 97 84 70 51 52 102 192 163 164 164 143 125 133 120 85 19 2 344 336 326 336 334 337 335 308 294 299
140 140 140 138 141 145 147 143 134 104 84 77 74 69 78 98 103 105 105 99 115 174 192 171 153 147 152 129 87 67 60 49 344 319 314 316 319 321 329 330 329 313 303
153 139 146 145 156 157 154 159 160 157 147 130 110 102 112 117 123 135 156 163 145 172 201 165 179 172 100 95 88 45 26 46 340 299 295 299 304 306 312 313 313 315 307
164 152 156 154 167 163 162 169 167 162 148 138 134 129 140 147 151 161 191 200 155 165 184 173 158 58 56 61 47 2 340 330 325 295 298 300 297 292 301 304 308 321 296
160 143 181 175 173 171 175 177 174 172 169 162 154 143 159 184 175 157 174 187 185 161 163 150 132 99 74 57 110 277 277 295 298 285 304 300 298 295 293 294 301 300 300
163 155 183 198 177 179 186 188 183 188 179 166 153 106 286 220 170 156 165 161 180 204 193 178 168 151 134 152 250 259 270 292 301 307 311 303 298 293 295 296 297 300 304
168 170 176 176 182 195 195 193 191 190 183 178 165 151 188 221 182 172 179 179 190 207 236 204 262 50 63 253 256 279 282 306 312 308 300 291 287 286 287 290 295 299 299
180 174 172 173 183 181 200 200 195 187 185 191 188 180 186 201 196 191 192 194 194 184 174 198 224 193 164 217 219 253 291 322 311 302 293 288 287 284 284 289 290 290 293
181 178 178 176 182 191 190 193 198 197 203 203 198 201 202 205 209 198 204 205 206 201 200 204 216 197 200 250 249 248 26 352 306 292 295 290 286 286 287 286 284 287 288
189 192 188 187 194 199 202 208 209 208 206 203 201 205 205 208 213 210 206 207 206 202 208 213 210 197 200 224 271 13 54 23 315 306 283 278 284 287 287 288 289 292 292
193 196 195 197 202 210 213 216 222 221 211 206 211 212 212 210 210 212 209 205 210 200 202 206 193 191 219 230 140 76 92 286 282 285 279 274 279 286 293 287 285 285 289